Location: Columbia
(38.9520°N, 92.3340°W)
Time: 10:36:58
(UTC-06:00)

Cosmos 1633 - Visible Passes

Search period start: 05 December 2016 00:00
Search period end: 15 December 2016 00:00
Orbit: 472 x 492 km, 82.5° (Epoch: 05 December)

Date Brightness Start Highest point End Pass type
(mag) Time Alt. Az. Time Alt. Az. Time Alt. Az.
05 Dec 2.7 06:02:24 10° SSW 06:05:57 49° W 06:09:30 10° N visible
05 Dec 5.0 17:29:37 10° NNW 17:32:40 26° W 17:35:42 10° SSW visible
06 Dec 2.4 05:36:51 10° S 05:40:30 88° W 05:44:09 10° N visible
07 Dec 3.4 05:11:35 10° S 05:15:06 51° E 05:18:39 10° NNE visible
08 Dec 4.5 04:46:35 10° SSE 04:49:46 29° E 04:52:56 10° NNE visible
08 Dec 4.2 06:22:47 10° WSW 06:24:49 14° WNW 06:26:52 10° NW visible
09 Dec 5.8 17:23:58 10° WNW 17:25:41 13° W 17:27:22 10° WSW visible
